sat.trackr.live / text

‹ back to catalog

STARLINK-35271

NORAD 65812 · 2025-218X

PAYLOAD ACTIVE UNKNOWN

§ Identity

Operator
Country
US
Launch date
2025-09-26
Launch site
AFWTR
Launch vehicle
Mass (kg)
RCS (m²)

Purposes: comms

External: N2YO · Heavens-Above · Gunter

§ Orbital elements

Epoch: 2026-09-20T14:36:47.686464Z

Period
93.91 min
Inclination
97.2853°
Eccentricity
0.0002200
Mean motion
15.33464403 rev/d
Perigee alt
464.0 km
Apogee alt
467.0 km
Semi-major
6,843.6 km
B*
4.1514e-4
RAAN
121.0358°
Arg perigee
94.4424°
Mean anomaly
265.7070°
Rev number
5,435

§ Raw data

STARLINK-352711 65812U 25218X   26263.60888526  .00013360  00000+0  41514-3 0  99922 65812  97.2853 121.0358 0002200  94.4424 265.7070 15.33464403 54356

JSON: /api/v1/satellites/65812 · /tle

For live sub-satellite position, see the globe view (requires WebGL).

§ Visibility from observer

Set your observer location to see the next 7 days of passes ≥ 10°. The values pass through the URL so the page stays shareable.

No JS? Fill the form by hand. The geolocation button needs JavaScript.